• en Suisse
  • Liste des pays
  • À 7 jours
  • Température de l'eau
  • Carte satellitaire
  • Carte météo
  • Widgets météo
  • user-avatar
    Se connecter

    Météo par heure à Seredy

    Ce jour, 14 Novembre, Mercredi

    Heure Température Précipitation Vent Pression Humidité
    00:00 -2°C° 0 mm 6 m/s 752 mmHg 64%
    01:00 -2°C° 0 mm 6 m/s 751 mmHg 65%
    02:00 -1°C° 0 mm 5 m/s 751 mmHg 65%
    03:00 -1°C° 0.8 mm 5 m/s 750 mmHg 72%
    04:00 -1°C° 0.8 mm 5 m/s 749 mmHg 78%
    05:00 -1°C° 0.8 mm 5 m/s 749 mmHg 84%
    06:00 -1°C° 1.6 mm 5 m/s 748 mmHg 87%
    07:00 -1°C° 1.6 mm 5 m/s 748 mmHg 89%
    08:00 0°C° 1.6 mm 4 m/s 748 mmHg 92%
    09:00 +1°C° 0.3 mm 4 m/s 748 mmHg 92%
    10:00 +3°C° 0.3 mm 4 m/s 748 mmHg 91%
    11:00 +4°C° 0.3 mm 4 m/s 748 mmHg 91%
    12:00 +5°C° 0.1 mm 4 m/s 748 mmHg 90%
    13:00 +5°C° 0.1 mm 3 m/s 747 mmHg 89%
    14:00 +7°C° 0.1 mm 3 m/s 747 mmHg 88%
    15:00 +7°C° 0.1 mm 3 m/s 747 mmHg 89%
    16:00 +7°C° 0.1 mm 3 m/s 747 mmHg 89%
    17:00 +5°C° 0.1 mm 3 m/s 747 mmHg 90%
    18:00 +5°C° 0.1 mm 3 m/s 747 mmHg 91%
    19:00 +5°C° 0.1 mm 3 m/s 747 mmHg 91%
    20:00 +5°C° 0.1 mm 3 m/s 747 mmHg 92%
    21:00 +5°C° 0.2 mm 3 m/s 747 mmHg 92%
    22:00 +5°C° 0.2 mm 3 m/s 747 mmHg 92%
    23:00 +5°C° 0.2 mm 4 m/s 747 mmHg 91%

    Demain, 15 Novembre, Jeudi

    Heure Température Précipitation Vent Pression Humidité
    00:00 +5°C° 0.4 mm 4 m/s 748 mmHg 91%
    01:00 +4°C° 0.4 mm 4 m/s 748 mmHg 90%
    02:00 +4°C° 0.4 mm 4 m/s 748 mmHg 89%
    03:00 +4°C° 0.3 mm 4 m/s 748 mmHg 89%
    04:00 +3°C° 0.3 mm 4 m/s 749 mmHg 89%
    05:00 +3°C° 0.3 mm 4 m/s 749 mmHg 89%
    06:00 +1°C° 0.1 mm 4 m/s 749 mmHg 89%
    07:00 +1°C° 0.1 mm 4 m/s 750 mmHg 89%
    08:00 +1°C° 0.1 mm 4 m/s 750 mmHg 89%
    09:00 +1°C° 0 mm 4 m/s 751 mmHg 89%
    10:00 +1°C° 0 mm 4 m/s 752 mmHg 88%
    11:00 +1°C° 0 mm 4 m/s 752 mmHg 88%
    12:00 +3°C° 0 mm 3 m/s 752 mmHg 87%
    13:00 +3°C° 0 mm 3 m/s 753 mmHg 87%
    14:00 +3°C° 0 mm 3 m/s 753 mmHg 87%
    15:00 +3°C° 0 mm 3 m/s 754 mmHg 88%
    16:00 +4°C° 0 mm 2 m/s 754 mmHg 89%
    17:00 +4°C° 0 mm 2 m/s 754 mmHg 90%
    18:00 +3°C° 0 mm 2 m/s 755 mmHg 91%
    19:00 +3°C° 0 mm 2 m/s 755 mmHg 91%
    20:00 +3°C° 0 mm 2 m/s 756 mmHg 91%
    21:00 +3°C° 0 mm 2 m/s 756 mmHg 92%
    22:00 +3°C° 0 mm 2 m/s 756 mmHg 92%
    23:00 +4°C° 0 mm 1 m/s 756 mmHg 92%

    Après-demain, 16 Novembre, Vendredi

    Heure Température Précipitation Vent Pression Humidité
    00:00 +4°C° 0 mm 1 m/s 757 mmHg 92%
    01:00 +4°C° 0 mm 1 m/s 757 mmHg 92%
    02:00 +4°C° 0 mm 1 m/s 757 mmHg 93%
    03:00 +3°C° 0 mm 1 m/s 757 mmHg 93%
    04:00 +3°C° 0 mm 1 m/s 757 mmHg 93%
    05:00 +3°C° 0 mm 1 m/s 758 mmHg 93%
    06:00 +2°C° 0 mm 2 m/s 758 mmHg 93%
    07:00 +1°C° 0 mm 2 m/s 758 mmHg 93%
    08:00 +1°C° 0 mm 2 m/s 759 mmHg 93%
    09:00 +2°C° 0 mm 2 m/s 759 mmHg 87%
    10:00 +2°C° 0 mm 2 m/s 759 mmHg 81%
    11:00 +2°C° 0 mm 3 m/s 759 mmHg 75%
    12:00 +2°C° 0 mm 3 m/s 759 mmHg 71%
    13:00 +2°C° 0 mm 3 m/s 759 mmHg 67%
    14:00 +3°C° 0 mm 3 m/s 759 mmHg 64%
    15:00 +2°C° 0 mm 3 m/s 759 mmHg 68%
    16:00 +1°C° 0 mm 3 m/s 759 mmHg 73%
    17:00 +1°C° 0 mm 2 m/s 759 mmHg 78%
    18:00 -1°C° 0 mm 2 m/s 760 mmHg 79%
    19:00 -2°C° 0 mm 3 m/s 760 mmHg 80%
    20:00 -2°C° 0 mm 3 m/s 760 mmHg 81%
    21:00 -2°C° 0 mm 3 m/s 760 mmHg 81%
    22:00 -4°C° 0 mm 3 m/s 760 mmHg 80%
    23:00 -3°C° 0 mm 2 m/s 760 mmHg 80%

    17 Novembre, Samedi

    Heure Température Précipitation Vent Pression Humidité
    00:00 -3°C° 0 mm 2 m/s 760 mmHg 78%
    01:00 -3°C° 0 mm 2 m/s 760 mmHg 77%
    02:00 -3°C° 0 mm 2 m/s 760 mmHg 75%
    03:00 -4°C° 0 mm 2 m/s 760 mmHg 73%
    04:00 -4°C° 0 mm 2 m/s 760 mmHg 70%
    05:00 -4°C° 0 mm 2 m/s 760 mmHg 68%
    06:00 -4°C° 0 mm 2 m/s 760 mmHg 66%
    07:00 -4°C° 0 mm 2 m/s 760 mmHg 65%
    08:00 -4°C° 0 mm 2 m/s 760 mmHg 63%
    09:00 -3°C° 0 mm 2 m/s 760 mmHg 57%
    10:00 -2°C° 0 mm 2 m/s 760 mmHg 51%
    11:00 0°C° 0 mm 3 m/s 760 mmHg 45%
    12:00 +1°C° 0 mm 2 m/s 760 mmHg 43%
    13:00 +2°C° 0 mm 2 m/s 760 mmHg 41%
    14:00 +3°C° 0 mm 2 m/s 759 mmHg 39%
    15:00 +1°C° 0 mm 2 m/s 759 mmHg 45%
    16:00 -1°C° 0 mm 2 m/s 759 mmHg 50%
    17:00 -2°C° 0 mm 2 m/s 759 mmHg 56%
    18:00 -2°C° 0 mm 2 m/s 759 mmHg 57%
    19:00 -3°C° 0 mm 2 m/s 759 mmHg 58%
    20:00 -1°C° 0 mm 1 m/s 758 mmHg 59%
    21:00 -1°C° 0 mm 1 m/s 758 mmHg 59%
    22:00 -1°C° 0 mm 1 m/s 758 mmHg 59%
    23:00 -1°C° 0 mm 1 m/s 758 mmHg 59%

    18 Novembre, Dimanche

    Heure Température Précipitation Vent Pression Humidité
    00:00 -3°C° 0 mm 2 m/s 757 mmHg 59%
    01:00 -3°C° 0 mm 2 m/s 757 mmHg 60%
    02:00 -3°C° 0 mm 2 m/s 756 mmHg 61%
    03:00 -4°C° 0 mm 3 m/s 756 mmHg 62%
    04:00 -4°C° 0 mm 3 m/s 755 mmHg 63%
    05:00 -2°C° 0 mm 3 m/s 754 mmHg 65%
    06:00 -3°C° 0.1 mm 4 m/s 753 mmHg 68%
    07:00 -3°C° 0.1 mm 4 m/s 753 mmHg 71%
    08:00 -2°C° 0.1 mm 4 m/s 752 mmHg 74%
    09:00 -2°C° 0.2 mm 4 m/s 752 mmHg 77%
    10:00 -1°C° 0.2 mm 4 m/s 751 mmHg 81%
    11:00 -1°C° 0.2 mm 4 m/s 750 mmHg 84%
    12:00 0°C° 0.1 mm 4 m/s 750 mmHg 86%
    13:00 0°C° 0.1 mm 4 m/s 749 mmHg 87%
    14:00 0°C° 0.1 mm 4 m/s 749 mmHg 89%
    15:00 0°C° 0.1 mm 4 m/s 748 mmHg 91%
    16:00 0°C° 0.1 mm 4 m/s 748 mmHg 93%
    17:00 +1°C° 0.1 mm 3 m/s 747 mmHg 95%
    18:00 +1°C° 0.1 mm 3 m/s 747 mmHg 95%
    19:00 +1°C° 0.1 mm 3 m/s 747 mmHg 95%
    20:00 0°C° 0.1 mm 3 m/s 746 mmHg 95%
    21:00 0°C° 0.1 mm 3 m/s 746 mmHg 95%
    22:00 0°C° 0.1 mm 3 m/s 746 mmHg 95%
    23:00 0°C° 0.1 mm 3 m/s 746 mmHg 95%

    19 Novembre, Lundi

    Heure Température Précipitation Vent Pression Humidité
    00:00 0°C° 0.2 mm 3 m/s 746 mmHg 94%
    01:00 0°C° 0.2 mm 3 m/s 746 mmHg 94%
    02:00 0°C° 0.2 mm 3 m/s 745 mmHg 93%
    03:00 0°C° 0.1 mm 3 m/s 745 mmHg 93%
    04:00 -1°C° 0.1 mm 4 m/s 745 mmHg 93%
    05:00 -2°C° 0.1 mm 4 m/s 745 mmHg 92%
    06:00 -1°C° 0.1 mm 3 m/s 745 mmHg 93%
    07:00 -1°C° 0.1 mm 3 m/s 745 mmHg 93%
    08:00 -1°C° 0.1 mm 3 m/s 745 mmHg 94%
    09:00 0°C° 0.1 mm 3 m/s 745 mmHg 92%
    10:00 0°C° 0.1 mm 3 m/s 745 mmHg 91%
    11:00 +1°C° 0.1 mm 3 m/s 745 mmHg 89%
    12:00 +1°C° 0.1 mm 3 m/s 745 mmHg 89%
    13:00 +1°C° 0.1 mm 3 m/s 745 mmHg 89%
    14:00 +1°C° 0.1 mm 3 m/s 745 mmHg 88%
    15:00 +1°C° 0.1 mm 3 m/s 745 mmHg 90%
    16:00 0°C° 0.1 mm 3 m/s 746 mmHg 92%
    17:00 0°C° 0.1 mm 3 m/s 746 mmHg 94%
    18:00 0°C° 0.1 mm 3 m/s 746 mmHg 93%
    19:00 0°C° 0.1 mm 3 m/s 746 mmHg 93%
    20:00 0°C° 0.1 mm 3 m/s 747 mmHg 93%
    21:00 0°C° 0.2 mm 3 m/s 747 mmHg 93%
    22:00 -1°C° 0.2 mm 3 m/s 747 mmHg 93%
    23:00 -1°C° 0.2 mm 3 m/s 747 mmHg 92%
    Voir plus